Time,TemperatureF,DewpointF,PressureIn,WindDirection,WindDirectionDegrees,WindSpeedMPH,WindSpeedGustMPH,Humidity,HourlyPrecipIn,Conditions,Clouds,dailyrainin,SolarRadiationWatts/m^2,SoftwareType,DateUTC
2013-11-21 00:02:00,36.6,34.8,30.11,SSE,163,2.4,6.9,93,0.00,RA,,0.00,0.0,WeatherDisplay:10.37,2013-11-21 06:02:00,
2013-11-21 00:07:00,36.6,34.8,30.11,SSE,157,1.4,4.8,93,0.00,RA,,0.00,0.0,WeatherDisplay:10.37,2013-11-21 06:07:00,
2013-11-21 00:12:00,36.8,35.0,30.11,SSE,167,2.9,6.0,93,0.00,OVC,,0.00,0.0,WeatherDisplay:10.37,2013-11-21 06:12:00,
2013-11-21 00:17:00,36.8,35.0,30.11,South,178,0.0,4.6,93,0.00,OVC,,0.00,0.0,WeatherDisplay:10.37,2013-11-21 06:17:00,
2013-11-21 00:22:00,36.8,35.0,30.11,South,174,0.5,2.4,93,0.00,OVC,,0.00,0.0,WeatherDisplay:10.37,2013-11-21 06:22:00,
2013-11-21 00:27:00,36.8,35.0,30.11,SSE,161,3.3,6.0,93,0.00,OVC,,0.00,0.0,WeatherDisplay:10.37,2013-11-21 06:27:00,
2013-11-21 00:32:00,36.8,35.0,30.11,SSE,165,2.8,6.0,93,0.00,OVC,,0.00,0.0,WeatherDisplay:10.37,2013-11-21 06:32:00,
2013-11-21 00:37:00,36.8,35.0,30.11,SSE,150,1.3,4.8,93,0.00,OVC,,0.00,0.0,WeatherDisplay:10.37,2013-11-21 06:37:00,
2013-11-21 00:42:00,36.8,35.0,30.11,SSE,154,2.4,6.0,93,0.00,OVC,,0.00,0.0,WeatherDisplay:10.37,2013-11-21 06:42:00,
2013-11-21 00:47:00,36.8,35.0,30.11,SSE,162,0.2,2.4,93,0.00,OVC,,0.00,0.0,WeatherDisplay:10.37,2013-11-21 06:47:00,
2013-11-21 00:52:00,36.8,35.0,30.11,SSE,162,0.0,1.2,93,0.00,OVC,,0.00,0.0,WeatherDisplay:10.37,2013-11-21 06:52:00,
2013-11-21 00:57:00,36.8,35.0,30.11,SSE,167,0.7,4.8,93,0.00,OVC,,0.00,0.0,WeatherDisplay:10.37,2013-11-21 06:57:00,
2013-11-21 01:02:00,36.8,35.0,30.11,SSE,167,0.0,1.2,93,0.00,OVC,,0.00,0.0,WeatherDisplay:10.37,2013-11-21 07:02:00,
2013-11-21 01:07:00,36.9,35.1,30.11,SSE,163,0.0,0.0,93,0.00,OVC,,0.00,0.0,WeatherDisplay:10.37,2013-11-21 07:07:00,
2013-11-21 01:12:00,36.9,35.1,30.11,SSE,162,0.1,1.2,93,0.00,OVC,,0.00,0.0,WeatherDisplay:10.37,2013-11-21 07:12:00,
2013-11-21 01:17:00,36.9,35.1,30.11,SSE,162,0.0,0.0,93,0.00,OVC,,0.00,0.0,WeatherDisplay:10.37,2013-11-21 07:17:00,
2013-11-21 01:22:00,36.9,35.1,30.11,SSE,162,0.2,1.2,93,0.00,OVC,,0.00,0.0,WeatherDisplay:10.37,2013-11-21 07:22:00,
2013-11-21 01:27:00,36.9,35.1,30.11,South,173,0.0,1.2,93,0.00,OVC,,0.00,0.0,WeatherDisplay:10.37,2013-11-21 07:27:00,
2013-11-21 01:32:00,36.9,35.1,30.11,South,173,0.0,0.0,93,0.00,OVC,,0.00,0.0,WeatherDisplay:10.37,2013-11-21 07:32:00,
2013-11-21 01:37:00,36.9,35.1,30.11,SSE,150,0.1,1.2,93,0.00,OVC,,0.00,0.0,WeatherDisplay:10.37,2013-11-21 07:37:00,
2013-11-21 01:42:00,36.9,35.1,30.11,SSE,150,0.0,0.0,93,0.00,OVC,,0.00,0.0,WeatherDisplay:10.37,2013-11-21 07:42:00,
2013-11-21 01:47:00,37.0,35.2,30.11,SSE,150,0.0,0.0,93,0.00,OVC,,0.00,0.0,WeatherDisplay:10.37,2013-11-21 07:47:00,
2013-11-21 01:52:00,37.0,35.2,30.11,SSE,151,0.0,0.0,93,0.00,OVC,,0.00,0.0,WeatherDisplay:10.37,2013-11-21 07:52:00,
2013-11-21 01:57:00,37.0,35.2,30.11,SSE,151,0.0,1.2,93,0.00,OVC,,0.00,0.0,WeatherDisplay:10.37,2013-11-21 07:57:00,
2013-11-21 02:02:00,37.0,35.2,30.12,SSE,151,0.0,0.0,93,0.00,OVC,,0.00,0.0,WeatherDisplay:10.37,2013-11-21 08:02:00,
2013-11-21 02:07:00,37.0,35.2,30.12,SSE,151,0.0,0.0,93,0.00,OVC,,0.00,0.0,WeatherDisplay:10.37,2013-11-21 08:07:00,
2013-11-21 02:12:00,37.0,35.2,30.12,SSE,150,0.0,0.0,93,0.00,OVC,,0.00,0.0,WeatherDisplay:10.37,2013-11-21 08:12:00,
2013-11-21 02:17:00,37.0,35.2,30.11,SSE,151,0.0,0.0,93,0.00,OVC,,0.00,0.0,WeatherDisplay:10.37,2013-11-21 08:17:00,
2013-11-21 02:22:00,37.0,35.2,30.11,SSE,151,0.0,0.0,93,0.00,OVC,,0.00,0.0,WeatherDisplay:10.37,2013-11-21 08:22:00,
2013-11-21 02:27:00,37.0,35.2,30.11,SSE,151,0.0,0.0,93,0.00,OVC,,0.00,0.0,WeatherDisplay:10.37,2013-11-21 08:27:00,
2013-11-21 02:32:00,37.0,35.2,30.11,SSE,151,0.0,0.0,93,0.00,OVC,,0.00,0.0,WeatherDisplay:10.37,2013-11-21 08:32:00,
2013-11-21 02:37:00,37.0,35.2,30.11,SSE,151,0.0,0.0,93,0.00,OVC,,0.00,0.0,WeatherDisplay:10.37,2013-11-21 08:37:00,
2013-11-21 02:42:00,37.0,35.2,30.11,SSE,151,0.0,0.0,93,0.00,OVC,,0.00,0.0,WeatherDisplay:10.37,2013-11-21 08:42:00,
2013-11-21 02:47:00,37.0,35.2,30.12,SSE,151,0.0,0.0,93,0.00,OVC,,0.00,0.0,WeatherDisplay:10.37,2013-11-21 08:47:00,
2013-11-21 02:52:00,37.2,35.4,30.12,SSE,151,0.0,0.0,93,0.00,OVC,,0.00,0.0,WeatherDisplay:10.37,2013-11-21 08:52:00,
2013-11-21 02:57:00,37.2,35.4,30.12,SSE,151,0.0,0.0,93,0.00,OVC,,0.00,0.0,WeatherDisplay:10.37,2013-11-21 08:57:00,
2013-11-21 03:02:00,37.2,35.4,30.12,SSE,151,0.0,0.0,93,0.00,OVC,,0.00,0.0,WeatherDisplay:10.37,2013-11-21 09:02:00,
2013-11-21 03:07:00,37.2,35.4,30.12,SSE,151,0.0,0.0,93,0.00,OVC,,0.00,0.0,WeatherDisplay:10.37,2013-11-21 09:07:00,
2013-11-21 03:12:00,37.2,35.4,30.12,SSE,151,0.0,0.0,93,0.00,OVC,,0.00,0.0,WeatherDisplay:10.37,2013-11-21 09:12:00,
2013-11-21 03:17:00,37.2,35.4,30.11,SSE,151,0.0,0.0,93,0.00,OVC,,0.00,0.0,WeatherDisplay:10.37,2013-11-21 09:17:00,
2013-11-21 03:22:00,37.2,35.4,30.11,SSE,151,0.0,0.0,93,0.00,OVC,,0.00,0.0,WeatherDisplay:10.37,2013-11-21 09:22:00,
2013-11-21 03:27:00,37.2,35.4,30.11,SSE,151,0.0,0.0,93,0.00,OVC,,0.00,0.0,WeatherDisplay:10.37,2013-11-21 09:27:00,
2013-11-21 03:32:00,37.0,35.2,30.11,SSE,151,0.0,0.0,93,0.00,OVC,,0.00,0.0,WeatherDisplay:10.37,2013-11-21 09:32:00,
2013-11-21 03:37:00,37.0,35.2,30.11,SSE,151,0.0,0.0,93,0.00,OVC,,0.00,0.0,WeatherDisplay:10.37,2013-11-21 09:37:00,
2013-11-21 03:42:00,37.0,35.2,30.11,SSE,151,0.0,0.0,93,0.00,OVC,,0.00,0.0,WeatherDisplay:10.37,2013-11-21 09:42:00,
2013-11-21 03:47:00,37.0,35.2,30.12,SSE,151,0.0,0.0,93,0.00,OVC,,0.00,0.0,WeatherDisplay:10.37,2013-11-21 09:47:00,
2013-11-21 03:52:00,37.0,35.2,30.12,SSE,151,0.0,0.0,93,0.00,OVC,,0.00,0.0,WeatherDisplay:10.37,2013-11-21 09:52:00,
2013-11-21 03:57:00,37.0,35.2,30.12,SSE,151,0.0,0.0,93,0.00,OVC,,0.00,0.0,WeatherDisplay:10.37,2013-11-21 09:57:00,
2013-11-21 04:02:00,37.0,35.2,30.11,SSE,151,0.0,0.0,93,0.00,OVC,,0.00,0.0,WeatherDisplay:10.37,2013-11-21 10:02:00,
2013-11-21 04:07:00,37.0,35.2,30.11,SSE,151,0.0,0.0,93,0.00,OVC,,0.00,0.0,WeatherDisplay:10.37,2013-11-21 10:07:00,
2013-11-21 04:12:00,37.0,35.2,30.11,SSE,151,0.0,0.0,93,0.00,OVC,,0.00,0.0,WeatherDisplay:10.37,2013-11-21 10:12:00,
2013-11-21 04:17:00,37.0,35.2,30.11,SSE,151,0.0,0.0,93,0.00,OVC,,0.00,0.0,WeatherDisplay:10.37,2013-11-21 10:17:00,
2013-11-21 04:22:00,37.0,35.2,30.11,SSE,151,0.0,0.0,93,0.00,OVC,,0.00,0.0,WeatherDisplay:10.37,2013-11-21 10:22:00,
2013-11-21 04:27:00,37.0,35.2,30.11,SSE,151,0.0,0.0,93,0.00,OVC,,0.00,0.0,WeatherDisplay:10.37,2013-11-21 10:27:00,
2013-11-21 04:32:00,37.0,35.2,30.13,SSE,151,0.0,0.0,93,0.00,OVC,,0.00,0.0,WeatherDisplay:10.37,2013-11-21 10:32:00,
2013-11-21 04:37:00,37.0,35.2,30.13,SSE,151,0.0,0.0,93,0.00,OVC,,0.00,0.0,WeatherDisplay:10.37,2013-11-21 10:37:00,
2013-11-21 04:42:00,37.0,35.2,30.13,SSE,151,0.0,0.0,93,0.00,OVC,,0.00,0.0,WeatherDisplay:10.37,2013-11-21 10:42:00,
2013-11-21 04:47:00,37.0,35.2,30.13,SSE,151,0.0,0.0,93,0.00,OVC,,0.00,0.0,WeatherDisplay:10.37,2013-11-21 10:47:00,
2013-11-21 04:52:00,37.0,35.2,30.13,SSE,151,0.0,0.0,93,0.00,OVC,,0.00,0.0,WeatherDisplay:10.37,2013-11-21 10:52:00,
2013-11-21 04:57:00,37.0,35.2,30.13,SSE,151,0.0,0.0,93,0.00,OVC,,0.00,0.0,WeatherDisplay:10.37,2013-11-21 10:57:00,
2013-11-21 05:02:00,36.9,35.1,30.13,SSE,151,0.0,0.0,93,0.00,OVC,,0.00,0.0,WeatherDisplay:10.37,2013-11-21 11:02:00,
2013-11-21 05:07:00,36.9,35.1,30.13,SE,133,0.0,0.0,93,0.00,OVC,,0.00,0.0,WeatherDisplay:10.37,2013-11-21 11:07:00,
2013-11-21 05:12:00,36.8,35.0,30.13,SE,133,0.0,0.0,93,0.00,OVC,,0.00,0.0,WeatherDisplay:10.37,2013-11-21 11:12:00,
2013-11-21 05:17:00,36.8,35.0,30.13,SE,133,0.0,0.0,93,0.00,OVC,,0.00,0.0,WeatherDisplay:10.37,2013-11-21 11:17:00,
2013-11-21 05:22:00,36.8,35.2,30.13,SE,133,0.0,0.0,94,0.00,OVC,,0.00,0.0,WeatherDisplay:10.37,2013-11-21 11:22:00,
2013-11-21 05:27:00,36.8,35.2,30.13,SE,133,0.0,0.0,94,0.00,OVC,,0.00,0.0,WeatherDisplay:10.37,2013-11-21 11:27:00,
2013-11-21 05:32:00,36.8,35.2,30.13,SE,133,0.0,0.0,94,0.00,OVC,,0.00,0.0,WeatherDisplay:10.37,2013-11-21 11:32:00,
2013-11-21 05:37:00,36.8,35.2,30.13,SE,133,0.0,0.0,94,0.00,OVC,,0.00,0.0,WeatherDisplay:10.37,2013-11-21 11:37:00,
2013-11-21 05:42:00,36.8,35.2,30.13,SE,133,0.0,0.0,94,0.00,OVC,,0.00,0.0,WeatherDisplay:10.37,2013-11-21 11:42:00,
2013-11-21 05:47:00,36.8,35.2,30.13,SE,133,0.0,0.0,94,0.00,OVC,,0.00,0.0,WeatherDisplay:10.37,2013-11-21 11:47:00,
2013-11-21 05:52:00,36.8,35.2,30.13,SE,133,0.0,0.0,94,0.00,OVC,,0.00,0.0,WeatherDisplay:10.37,2013-11-21 11:52:00,
2013-11-21 05:57:00,36.8,35.2,30.13,SE,133,0.0,0.0,94,0.00,OVC,,0.00,0.0,WeatherDisplay:10.37,2013-11-21 11:57:00,
2013-11-21 06:02:00,36.9,35.3,30.14,SE,133,0.0,0.0,94,0.00,OVC,,0.00,0.0,WeatherDisplay:10.37,2013-11-21 12:02:00,
2013-11-21 06:07:00,36.9,35.3,30.14,SE,133,0.0,0.0,94,0.00,OVC,,0.00,0.0,WeatherDisplay:10.37,2013-11-21 12:07:00,
2013-11-21 06:12:00,36.9,35.3,30.14,SE,133,0.0,0.0,94,0.00,OVC,,0.00,0.0,WeatherDisplay:10.37,2013-11-21 12:12:00,
2013-11-21 06:17:00,36.9,35.3,30.14,SE,133,0.0,0.0,94,0.00,OVC,,0.00,0.0,WeatherDisplay:10.37,2013-11-21 12:17:00,
2013-11-21 06:22:00,36.9,35.3,30.14,SE,133,0.0,0.0,94,0.00,OVC,,0.00,0.0,WeatherDisplay:10.37,2013-11-21 12:22:00,
2013-11-21 06:27:00,36.9,35.3,30.14,SE,133,0.0,0.0,94,0.00,OVC,,0.00,0.0,WeatherDisplay:10.37,2013-11-21 12:27:00,
2013-11-21 06:32:00,36.9,35.3,30.15,SE,133,0.0,0.0,94,0.00,OVC,,0.00,0.0,WeatherDisplay:10.37,2013-11-21 12:32:00,
2013-11-21 06:37:00,36.9,35.3,30.15,SE,133,0.0,0.0,94,0.00,OVC,,0.00,0.0,WeatherDisplay:10.37,2013-11-21 12:37:00,
2013-11-21 06:42:00,36.9,35.3,30.15,SE,133,0.0,0.0,94,0.00,OVC,,0.00,0.0,WeatherDisplay:10.37,2013-11-21 12:42:00,
2013-11-21 06:47:00,36.9,35.3,30.16,SE,133,0.0,0.0,94,0.00,OVC,,0.00,0.0,WeatherDisplay:10.37,2013-11-21 12:47:00,
2013-11-21 06:52:00,36.9,35.3,30.16,SE,133,0.0,0.0,94,0.00,OVC,,0.00,0.0,WeatherDisplay:10.37,2013-11-21 12:52:00,
2013-11-21 06:57:00,36.9,35.3,30.16,SE,133,0.0,0.0,94,0.00,OVC,,0.00,0.0,WeatherDisplay:10.37,2013-11-21 12:57:00,
2013-11-21 07:02:00,36.9,35.3,30.16,SE,133,0.0,0.0,94,0.00,OVC,,0.00,0.0,WeatherDisplay:10.37,2013-11-21 13:02:00,
2013-11-21 07:07:00,36.9,35.3,30.16,SE,133,0.0,0.0,94,0.00,OVC,,0.00,0.0,WeatherDisplay:10.37,2013-11-21 13:07:00,
2013-11-21 07:12:00,36.9,35.3,30.16,SE,133,0.0,0.0,94,0.00,OVC,,0.00,0.0,WeatherDisplay:10.37,2013-11-21 13:12:00,
2013-11-21 07:17:00,36.9,35.3,30.17,SE,133,0.0,0.0,94,0.00,OVC,,0.00,0.0,WeatherDisplay:10.37,2013-11-21 13:17:00,
2013-11-21 07:22:00,36.9,35.3,30.17,SE,133,0.0,0.0,94,0.00,OVC,,0.00,5.0,WeatherDisplay:10.37,2013-11-21 13:22:00,
2013-11-21 07:27:00,37.0,35.7,30.17,SE,133,0.0,0.0,95,0.00,OVC,,0.00,7.0,WeatherDisplay:10.37,2013-11-21 13:27:00,
2013-11-21 07:32:00,37.0,35.7,30.17,SE,133,0.0,0.0,95,0.00,OVC,,0.00,9.0,WeatherDisplay:10.37,2013-11-21 13:32:00,
2013-11-21 07:37:00,37.2,35.9,30.17,SE,133,0.0,0.0,95,0.00,OVC,,0.00,11.0,WeatherDisplay:10.37,2013-11-21 13:37:00,
2013-11-21 07:42:00,37.3,36.0,30.17,SE,133,0.0,0.0,95,0.00,OVC,,0.00,12.0,WeatherDisplay:10.37,2013-11-21 13:42:00,
2013-11-21 07:47:00,37.3,36.0,30.18,SE,133,0.0,0.0,95,0.00,OVC,,0.00,14.0,WeatherDisplay:10.37,2013-11-21 13:47:00,
2013-11-21 07:52:00,37.3,36.0,30.18,SE,133,0.0,0.0,95,0.00,OVC,,0.00,18.0,WeatherDisplay:10.37,2013-11-21 13:52:00,
2013-11-21 07:57:00,37.3,36.0,30.18,SE,133,0.0,0.0,95,0.00,OVC,,0.00,25.0,WeatherDisplay:10.37,2013-11-21 13:57:00,
2013-11-21 08:02:00,37.3,36.0,30.18,SE,133,0.0,0.0,95,0.00,OVC,,0.00,28.0,WeatherDisplay:10.37,2013-11-21 14:02:00,
2013-11-21 08:07:00,37.5,36.2,30.18,SE,133,0.0,0.0,95,0.00,OVC,,0.00,32.0,WeatherDisplay:10.37,2013-11-21 14:07:00,
2013-11-21 08:12:00,37.5,36.2,30.18,SE,133,0.0,0.0,95,0.00,OVC,,0.00,32.0,WeatherDisplay:10.37,2013-11-21 14:12:00,
2013-11-21 08:18:00,37.5,36.2,30.18,SSE,149,0.8,2.4,95,0.00,OVC,,0.00,35.0,WeatherDisplay:10.37,2013-11-21 14:18:00,
2013-11-21 08:23:00,37.5,36.2,30.18,SSE,149,0.0,0.0,95,0.00,OVC,,0.00,37.0,WeatherDisplay:10.37,2013-11-21 14:23:00,
2013-11-21 08:28:00,37.5,36.2,30.18,SSE,149,0.0,0.0,95,0.00,OVC,,0.00,44.0,WeatherDisplay:10.37,2013-11-21 14:28:00,
2013-11-21 08:33:00,37.6,36.3,30.18,SSE,149,0.0,0.0,95,0.00,OVC,,0.00,39.0,WeatherDisplay:10.37,2013-11-21 14:33:00,
2013-11-21 08:38:00,37.6,36.3,30.18,SSE,149,0.0,0.0,95,0.00,OVC,,0.00,47.0,WeatherDisplay:10.37,2013-11-21 14:38:00,
2013-11-21 08:43:00,37.8,36.5,30.18,SSE,149,0.0,0.0,95,0.00,OVC,,0.00,53.0,WeatherDisplay:10.37,2013-11-21 14:43:00,
2013-11-21 08:48:00,37.9,36.6,30.18,SSE,149,0.0,0.0,95,0.00,OVC,,0.00,54.0,WeatherDisplay:10.37,2013-11-21 14:48:00,
2013-11-21 08:53:00,37.9,36.6,30.18,SSE,149,0.0,0.0,95,0.00,OVC,,0.00,44.0,WeatherDisplay:10.37,2013-11-21 14:53:00,
2013-11-21 08:58:00,37.9,36.6,30.18,SSE,149,0.0,0.0,95,0.00,OVC,,0.00,49.0,WeatherDisplay:10.37,2013-11-21 14:58:00,
2013-11-21 09:03:00,38.0,36.7,30.19,SSE,149,0.0,0.0,95,0.00,OVC,,0.00,47.0,WeatherDisplay:10.37,2013-11-21 15:03:00,
2013-11-21 09:08:00,38.0,36.7,30.19,SSE,149,0.0,0.0,95,0.00,OVC,,0.00,46.0,WeatherDisplay:10.37,2013-11-21 15:08:00,
2013-11-21 09:13:00,38.0,36.7,30.19,SSE,149,0.0,0.0,95,0.00,OVC,,0.00,54.0,WeatherDisplay:10.37,2013-11-21 15:13:00,
2013-11-21 09:18:00,38.0,36.7,30.19,SSE,149,0.0,0.0,95,0.00,OVC,,0.00,60.0,WeatherDisplay:10.37,2013-11-21 15:18:00,
2013-11-21 09:23:00,38.0,36.7,30.19,SSE,149,0.0,0.0,95,0.00,OVC,,0.00,58.0,WeatherDisplay:10.37,2013-11-21 15:23:00,
2013-11-21 09:28:00,38.2,36.9,30.19,SSE,149,0.0,0.0,95,0.00,OVC,,0.00,53.0,WeatherDisplay:10.37,2013-11-21 15:28:00,
2013-11-21 09:33:00,38.2,36.9,30.19,SSE,149,0.0,0.0,95,0.00,OVC,,0.00,79.0,WeatherDisplay:10.37,2013-11-21 15:33:00,
2013-11-21 09:38:00,38.3,36.7,30.19,SSE,149,0.0,0.0,94,0.00,OVC,,0.00,130.0,WeatherDisplay:10.37,2013-11-21 15:38:00,
2013-11-21 09:43:00,38.5,37.2,30.19,SSE,149,0.0,0.0,95,0.00,OVC,,0.00,151.0,WeatherDisplay:10.37,2013-11-21 15:43:00,
2013-11-21 09:48:00,38.6,37.0,30.19,West,259,2.3,3.6,94,0.00,OVC,,0.00,153.0,WeatherDisplay:10.37,2013-11-21 15:48:00,
2013-11-21 09:53:00,38.8,37.2,30.19,WNW,298,0.0,3.5,94,0.00,OVC,,0.00,125.0,WeatherDisplay:10.37,2013-11-21 15:53:00,
2013-11-21 09:58:00,38.9,37.3,30.19,WNW,290,0.5,4.6,94,0.00,OVC,,0.00,114.0,WeatherDisplay:10.37,2013-11-21 15:58:00,
2013-11-21 10:03:00,38.9,37.0,30.20,WNW,287,0.3,3.6,93,0.00,OVC,,0.00,83.0,WeatherDisplay:10.37,2013-11-21 16:03:00,
2013-11-21 10:08:00,38.9,37.0,30.20,West,276,0.1,1.2,93,0.00,OVC,,0.00,93.0,WeatherDisplay:10.37,2013-11-21 16:08:00,
2013-11-21 10:13:00,38.9,37.0,30.20,West,281,0.6,3.6,93,0.00,OVC,,0.00,135.0,WeatherDisplay:10.37,2013-11-21 16:13:00,
2013-11-21 10:18:00,39.1,37.2,30.21,WNW,294,1.2,3.6,93,0.00,OVC,,0.00,179.0,WeatherDisplay:10.37,2013-11-21 16:18:00,
2013-11-21 10:23:00,39.2,37.3,30.21,WNW,283,0.0,0.0,93,0.00,OVC,,0.00,165.0,WeatherDisplay:10.37,2013-11-21 16:23:00,
2013-11-21 10:28:00,39.3,37.2,30.21,WNW,283,0.0,0.0,92,0.00,OVC,,0.00,113.0,WeatherDisplay:10.37,2013-11-21 16:28:00,
2013-11-21 10:33:00,39.3,36.9,30.21,West,271,0.0,2.3,91,0.00,OVC,,0.00,79.0,WeatherDisplay:10.37,2013-11-21 16:33:00,
2013-11-21 10:38:00,39.5,37.1,30.21,West,272,0.0,0.0,91,0.00,OVC,,0.00,91.0,WeatherDisplay:10.37,2013-11-21 16:38:00,
2013-11-21 10:43:00,39.6,37.2,30.21,West,272,0.0,0.0,91,0.00,OVC,,0.00,97.0,WeatherDisplay:10.37,2013-11-21 16:43:00,
2013-11-21 10:48:00,39.5,36.8,30.21,West,272,0.0,0.0,90,0.00,OVC,,0.00,90.0,WeatherDisplay:10.37,2013-11-21 16:48:00,
2013-11-21 10:53:00,39.6,36.9,30.21,West,272,0.0,1.2,90,0.00,OVC,,0.00,47.0,WeatherDisplay:10.37,2013-11-21 16:53:00,
2013-11-21 10:58:00,39.5,36.5,30.21,West,272,0.0,1.2,89,0.00,OVC,,0.00,30.0,WeatherDisplay:10.37,2013-11-21 16:58:00,
2013-11-21 11:03:00,39.6,36.6,30.21,West,272,0.0,0.0,89,0.00,OVC,,0.00,28.0,WeatherDisplay:10.37,2013-11-21 17:03:00,
2013-11-21 11:08:00,39.6,36.3,30.21,West,275,0.8,3.6,88,0.00,OVC,,0.00,32.0,WeatherDisplay:10.37,2013-11-21 17:08:00,
2013-11-21 11:13:00,39.5,36.2,30.21,WNW,289,0.0,0.0,88,0.00,OVC,,0.00,47.0,WeatherDisplay:10.37,2013-11-21 17:13:00,
2013-11-21 11:18:00,39.5,36.2,30.20,WNW,296,0.0,0.0,88,0.00,OVC,,0.00,67.0,WeatherDisplay:10.37,2013-11-21 17:18:00,
2013-11-21 11:23:00,39.8,36.5,30.20,North,350,1.7,3.6,88,0.00,OVC,,0.00,74.0,WeatherDisplay:10.37,2013-11-21 17:23:00,
2013-11-21 11:28:00,39.6,36.0,30.20,North,350,0.0,1.2,87,0.00,OVC,,0.00,74.0,WeatherDisplay:10.37,2013-11-21 17:28:00,
2013-11-21 11:33:00,39.8,36.2,30.19,North,350,0.0,0.0,87,0.00,OVC,,0.00,63.0,WeatherDisplay:10.37,2013-11-21 17:33:00,
2013-11-21 11:38:00,39.6,36.0,30.19,North,350,0.0,3.5,87,0.00,OVC,,0.00,105.0,WeatherDisplay:10.37,2013-11-21 17:38:00,
2013-11-21 11:43:00,39.8,36.2,30.19,North,350,0.0,0.0,87,0.00,OVC,,0.00,90.0,WeatherDisplay:10.37,2013-11-21 17:43:00,
2013-11-21 11:48:00,39.9,36.1,30.18,North,350,0.0,0.0,86,0.00,OVC,,0.00,77.0,WeatherDisplay:10.37,2013-11-21 17:48:00,
2013-11-21 11:53:00,40.1,36.5,30.18,North,350,0.0,0.0,87,0.00,OVC,,0.00,58.0,WeatherDisplay:10.37,2013-11-21 17:53:00,
2013-11-21 11:58:00,40.1,36.5,30.18,North,350,0.0,1.2,87,0.00,OVC,,0.00,62.0,WeatherDisplay:10.37,2013-11-21 17:58:00,
2013-11-21 12:03:00,39.9,36.1,30.19,WNW,297,0.0,0.0,86,0.00,OVC,,0.00,63.0,WeatherDisplay:10.37,2013-11-21 18:03:00,
2013-11-21 12:08:00,39.8,36.0,30.19,WNW,290,0.0,0.0,86,0.00,OVC,,0.00,62.0,WeatherDisplay:10.37,2013-11-21 18:08:00,
2013-11-21 12:13:00,39.8,36.0,30.19,WNW,294,0.0,1.2,86,0.00,OVC,,0.00,62.0,WeatherDisplay:10.37,2013-11-21 18:13:00,
2013-11-21 12:18:00,39.8,36.0,30.19,NW,311,0.5,3.6,86,0.00,OVC,,0.00,56.0,WeatherDisplay:10.37,2013-11-21 18:18:00,
2013-11-21 12:23:00,39.8,36.0,30.19,NW,312,0.0,0.0,86,0.00,OVC,,0.00,54.0,WeatherDisplay:10.37,2013-11-21 18:23:00,
2013-11-21 12:28:00,39.8,36.0,30.19,NW,312,0.0,1.2,86,0.00,OVC,,0.00,54.0,WeatherDisplay:10.37,2013-11-21 18:28:00,
2013-11-21 12:33:00,39.8,36.2,30.19,NW,312,0.0,0.0,87,0.00,OVC,,0.00,79.0,WeatherDisplay:10.37,2013-11-21 18:33:00,
2013-11-21 12:38:00,39.8,36.2,30.19,NW,312,0.0,0.0,87,0.00,OVC,,0.00,109.0,WeatherDisplay:10.37,2013-11-21 18:38:00,
2013-11-21 12:43:00,39.9,36.3,30.19,NW,312,0.0,0.0,87,0.00,OVC,,0.00,88.0,WeatherDisplay:10.37,2013-11-21 18:43:00,
2013-11-21 12:48:00,40.1,36.5,30.19,NW,312,0.0,0.0,87,0.00,OVC,,0.00,56.0,WeatherDisplay:10.37,2013-11-21 18:48:00,
2013-11-21 12:53:00,40.1,36.2,30.19,NW,312,0.0,0.0,86,0.00,OVC,,0.00,44.0,WeatherDisplay:10.37,2013-11-21 18:53:00,
2013-11-21 12:58:00,39.9,36.1,30.19,NW,312,0.0,0.0,86,0.00,OVC,,0.00,49.0,WeatherDisplay:10.37,2013-11-21 18:58:00,
2013-11-21 13:03:00,39.9,36.1,30.20,NW,312,0.0,0.0,86,0.00,OVC,,0.00,51.0,WeatherDisplay:10.37,2013-11-21 19:03:00,
2013-11-21 13:08:00,40.1,36.2,30.20,NW,312,0.0,0.0,86,0.00,OVC,,0.00,46.0,WeatherDisplay:10.37,2013-11-21 19:08:00,
2013-11-21 13:13:00,40.1,36.2,30.20,NW,312,0.0,0.0,86,0.00,OVC,,0.00,33.0,WeatherDisplay:10.37,2013-11-21 19:13:00,
2013-11-21 13:18:00,40.1,36.2,30.19,WNW,285,0.0,0.0,86,0.00,OVC,,0.00,28.0,WeatherDisplay:10.37,2013-11-21 19:18:00,
2013-11-21 13:23:00,40.1,36.2,30.19,WNW,292,0.0,1.2,86,0.00,OVC,,0.00,18.0,WeatherDisplay:10.37,2013-11-21 19:23:00,
2013-11-21 13:28:00,39.9,36.1,30.19,WNW,292,0.0,0.0,86,0.00,OVC,,0.00,14.0,WeatherDisplay:10.37,2013-11-21 19:28:00,
2013-11-21 13:33:00,39.9,36.1,30.19,WNW,292,0.0,0.0,86,0.00,OVC,,0.00,37.0,WeatherDisplay:10.37,2013-11-21 19:33:00,
2013-11-21 13:38:00,39.9,36.1,30.19,WNW,292,0.0,0.0,86,0.00,OVC,,0.00,42.0,WeatherDisplay:10.37,2013-11-21 19:38:00,
2013-11-21 13:43:00,39.9,36.1,30.19,WNW,292,0.0,0.0,86,0.00,OVC,,0.00,53.0,WeatherDisplay:10.37,2013-11-21 19:43:00,
2013-11-21 13:48:00,39.9,36.1,30.19,NNW,341,0.0,1.2,86,0.00,OVC,,0.00,37.0,WeatherDisplay:10.37,2013-11-21 19:48:00,
2013-11-21 13:53:00,39.9,36.3,30.19,NNW,344,0.0,0.0,87,0.00,OVC,,0.00,25.0,WeatherDisplay:10.37,2013-11-21 19:53:00,
2013-11-21 13:58:00,39.9,36.3,30.19,NNW,336,0.0,0.0,87,0.00,OVC,,0.00,18.0,WeatherDisplay:10.37,2013-11-21 19:58:00,
2013-11-21 14:03:00,39.9,36.3,30.19,NNW,336,0.0,0.0,87,0.00,OVC,,0.00,14.0,WeatherDisplay:10.37,2013-11-21 20:03:00,
2013-11-21 14:08:00,39.8,36.2,30.19,NNW,336,0.0,1.2,87,0.00,OVC,,0.00,25.0,WeatherDisplay:10.37,2013-11-21 20:08:00,
2013-11-21 14:13:00,39.8,36.2,30.19,NNW,336,0.0,0.0,87,0.00,OVC,,0.00,28.0,WeatherDisplay:10.37,2013-11-21 20:13:00,
2013-11-21 14:18:00,39.8,36.2,30.20,NNW,336,0.0,0.0,87,0.00,OVC,,0.00,28.0,WeatherDisplay:10.37,2013-11-21 20:18:00,
2013-11-21 14:23:00,39.8,36.2,30.20,NNW,336,0.0,0.0,87,0.00,OVC,,0.00,26.0,WeatherDisplay:10.37,2013-11-21 20:23:00,
2013-11-21 14:28:00,39.8,36.2,30.20,NNW,336,0.0,0.0,87,0.00,OVC,,0.00,26.0,WeatherDisplay:10.37,2013-11-21 20:28:00,
2013-11-21 14:33:00,39.8,36.2,30.20,NNW,330,0.0,0.0,87,0.00,OVC,,0.00,25.0,WeatherDisplay:10.37,2013-11-21 20:33:00,
2013-11-21 14:38:00,39.8,36.0,30.20,NNW,329,0.0,1.2,86,0.00,OVC,,0.00,21.0,WeatherDisplay:10.37,2013-11-21 20:38:00,
2013-11-21 14:43:00,39.8,36.0,30.20,NNW,329,0.1,1.2,86,0.00,OVC,,0.00,14.0,WeatherDisplay:10.37,2013-11-21 20:43:00,
2013-11-21 14:48:00,39.8,36.0,30.20,West,275,0.0,1.2,86,0.00,OVC,,0.00,12.0,WeatherDisplay:10.37,2013-11-21 20:48:00,
2013-11-21 14:53:00,39.8,36.0,30.20,NW,304,1.7,4.8,86,0.00,OVC,,0.00,14.0,WeatherDisplay:10.37,2013-11-21 20:53:00,
2013-11-21 14:58:00,39.6,35.8,30.20,NW,317,5.0,8.4,86,0.00,OVC,,0.00,16.0,WeatherDisplay:10.37,2013-11-21 20:58:00,
2013-11-21 15:03:00,39.5,35.7,30.21,NW,311,2.9,8.4,86,0.00,OVC,,0.00,19.0,WeatherDisplay:10.37,2013-11-21 21:03:00,
2013-11-21 15:08:00,39.5,35.7,30.21,NW,316,0.7,2.4,86,0.00,OVC,,0.00,18.0,WeatherDisplay:10.37,2013-11-21 21:08:00,
2013-11-21 15:13:00,39.5,35.7,30.21,WNW,286,0.2,1.2,86,0.00,OVC,,0.00,16.0,WeatherDisplay:10.37,2013-11-21 21:13:00,
2013-11-21 15:18:00,39.5,35.7,30.22,WNW,290,2.0,4.8,86,0.00,OVC,,0.00,16.0,WeatherDisplay:10.37,2013-11-21 21:18:00,
2013-11-21 15:23:00,39.5,35.7,30.22,NW,307,0.6,2.4,86,0.00,OVC,,0.00,14.0,WeatherDisplay:10.37,2013-11-21 21:23:00,
2013-11-21 15:28:00,39.3,35.5,30.22,NNE,28,2.4,4.8,86,0.00,OVC,,0.00,11.0,WeatherDisplay:10.37,2013-11-21 21:28:00,
2013-11-21 15:33:00,39.3,35.5,30.22,NW,326,0.6,4.8,86,0.00,OVC,,0.00,5.0,WeatherDisplay:10.37,2013-11-21 21:33:00,
2013-11-21 15:38:00,39.2,35.4,30.22,NW,325,0.8,5.8,86,0.00,OVC,,0.00,0.0,WeatherDisplay:10.37,2013-11-21 21:38:00,
2013-11-21 15:43:00,39.1,35.3,30.22,NW,306,2.4,5.8,86,0.00,OVC,,0.00,0.0,WeatherDisplay:10.37,2013-11-21 21:43:00,
2013-11-21 15:48:00,38.9,35.1,30.23,WNW,299,2.4,4.8,86,0.00,OVC,,0.00,0.0,WeatherDisplay:10.37,2013-11-21 21:48:00,
2013-11-21 15:53:00,38.9,35.1,30.23,WNW,300,0.0,1.2,86,0.00,OVC,,0.00,0.0,WeatherDisplay:10.37,2013-11-21 21:53:00,
2013-11-21 15:58:00,38.9,35.1,30.23,WNW,302,0.0,0.0,86,0.00,OVC,,0.00,0.0,WeatherDisplay:10.37,2013-11-21 21:58:00,
2013-11-21 16:03:00,38.8,35.0,30.23,WNW,302,0.1,2.3,86,0.00,OVC,,0.00,0.0,WeatherDisplay:10.37,2013-11-21 22:03:00,
2013-11-21 16:08:00,38.8,35.3,30.23,WNW,302,0.0,0.0,87,0.00,OVC,,0.00,0.0,WeatherDisplay:10.37,2013-11-21 22:08:00,
2013-11-21 16:13:00,38.8,35.0,30.23,NW,311,0.1,1.2,86,0.00,OVC,,0.00,0.0,WeatherDisplay:10.37,2013-11-21 22:13:00,
2013-11-21 16:18:00,38.6,35.1,30.24,WNW,302,0.0,0.0,87,0.00,OVC,,0.00,0.0,WeatherDisplay:10.37,2013-11-21 22:18:00,
2013-11-21 16:23:00,38.6,35.1,30.24,WNW,298,0.0,0.0,87,0.00,OVC,,0.00,0.0,WeatherDisplay:10.37,2013-11-21 22:23:00,
2013-11-21 16:28:00,38.6,35.1,30.24,WNW,293,0.2,2.4,87,0.00,OVC,,0.00,0.0,WeatherDisplay:10.37,2013-11-21 22:28:00,
2013-11-21 16:33:00,38.6,35.1,30.24,WNW,301,0.0,1.2,87,0.00,OVC,,0.00,0.0,WeatherDisplay:10.37,2013-11-21 22:33:00,
2013-11-21 16:38:00,38.6,35.1,30.24,NW,306,0.0,1.2,87,0.00,OVC,,0.00,0.0,WeatherDisplay:10.37,2013-11-21 22:38:00,
2013-11-21 16:43:00,38.6,35.1,30.24,NW,308,0.0,0.0,87,0.00,OVC,,0.00,0.0,WeatherDisplay:10.37,2013-11-21 22:43:00,
2013-11-21 16:48:00,38.5,35.0,30.24,NW,304,0.0,0.0,87,0.00,OVC,,0.00,0.0,WeatherDisplay:10.37,2013-11-21 22:48:00,
2013-11-21 16:53:00,38.5,35.0,30.24,NW,321,0.0,2.3,87,0.00,OVC,,0.00,0.0,WeatherDisplay:10.37,2013-11-21 22:53:00,
2013-11-21 16:58:00,38.5,35.0,30.24,WNW,294,0.2,2.4,87,0.00,OVC,,0.00,0.0,WeatherDisplay:10.37,2013-11-21 22:58:00,
2013-11-21 17:03:00,38.5,35.3,30.24,WNW,295,0.0,1.2,88,0.00,OVC,,0.00,0.0,WeatherDisplay:10.37,2013-11-21 23:03:00,
2013-11-21 17:08:00,38.5,35.3,30.24,WNW,295,0.0,0.0,88,0.00,OVC,,0.00,0.0,WeatherDisplay:10.37,2013-11-21 23:08:00,
2013-11-21 17:13:00,38.3,35.1,30.24,NW,311,0.0,0.0,88,0.00,OVC,,0.00,0.0,WeatherDisplay:10.37,2013-11-21 23:13:00,
2013-11-21 17:18:00,38.3,35.1,30.24,NW,321,0.0,0.0,88,0.00,OVC,,0.00,0.0,WeatherDisplay:10.37,2013-11-21 23:18:00,
2013-11-21 17:23:00,38.3,35.1,30.24,NW,317,0.1,1.2,88,0.00,OVC,,0.00,0.0,WeatherDisplay:10.37,2013-11-21 23:23:00,
2013-11-21 17:28:00,38.3,35.1,30.24,NW,315,0.0,1.2,88,0.00,OVC,,0.00,0.0,WeatherDisplay:10.37,2013-11-21 23:28:00,
2013-11-21 17:33:00,38.3,35.1,30.24,NW,308,1.2,3.6,88,0.00,OVC,,0.00,0.0,WeatherDisplay:10.37,2013-11-21 23:33:00,
2013-11-21 17:38:00,38.2,35.0,30.24,NE,36,0.0,0.0,88,0.00,OVC,,0.00,0.0,WeatherDisplay:10.37,2013-11-21 23:38:00,
2013-11-21 17:43:00,38.2,35.0,30.24,NNW,341,2.0,4.8,88,0.00,OVC,,0.00,0.0,WeatherDisplay:10.37,2013-11-21 23:43:00,
2013-11-21 17:48:00,38.0,34.8,30.25,NW,309,3.8,4.8,88,0.00,OVC,,0.00,0.0,WeatherDisplay:10.37,2013-11-21 23:48:00,
2013-11-21 17:53:00,38.0,34.8,30.25,NW,311,0.0,1.2,88,0.00,OVC,,0.00,0.0,WeatherDisplay:10.37,2013-11-21 23:53:00,
2013-11-21 17:58:00,38.0,34.8,30.25,NW,308,1.9,4.8,88,0.00,OVC,,0.00,0.0,WeatherDisplay:10.37,2013-11-21 23:58:00,
2013-11-21 18:03:00,37.9,34.7,30.25,NNW,340,0.5,3.5,88,0.00,OVC,,0.00,0.0,WeatherDisplay:10.37,2013-11-22 00:03:00,
2013-11-21 18:08:00,37.9,34.7,30.25,NNW,343,0.0,3.5,88,0.00,OVC,,0.00,0.0,WeatherDisplay:10.37,2013-11-22 00:08:00,
2013-11-21 18:13:00,37.8,34.3,30.25,NW,326,1.8,3.6,87,0.00,OVC,,0.00,0.0,WeatherDisplay:10.37,2013-11-22 00:13:00,
2013-11-21 18:18:00,37.8,34.3,30.26,NNW,327,0.8,3.6,87,0.00,OVC,,0.00,0.0,WeatherDisplay:10.37,2013-11-22 00:18:00,
2013-11-21 18:23:00,37.6,34.1,30.26,NNW,327,1.6,3.6,87,0.00,OVC,,0.00,0.0,WeatherDisplay:10.37,2013-11-22 00:23:00,
2013-11-21 18:28:00,37.6,34.1,30.26,NNW,327,0.6,3.6,87,0.00,OVC,,0.00,0.0,WeatherDisplay:10.37,2013-11-22 00:28:00,
2013-11-21 18:33:00,37.6,34.4,30.26,NNW,331,0.4,4.8,88,0.00,OVC,,0.00,0.0,WeatherDisplay:10.37,2013-11-22 00:33:00,
2013-11-21 18:38:00,37.5,34.3,30.26,NW,306,0.7,4.6,88,0.00,OVC,,0.00,0.0,WeatherDisplay:10.37,2013-11-22 00:38:00,
2013-11-21 18:43:00,37.5,34.3,30.26,NW,315,1.9,7.2,88,0.00,OVC,,0.00,0.0,WeatherDisplay:10.37,2013-11-22 00:43:00,
2013-11-21 18:48:00,37.5,34.3,30.26,NNW,339,0.0,2.3,88,0.00,OVC,,0.00,0.0,WeatherDisplay:10.37,2013-11-22 00:48:00,
2013-11-21 18:53:00,37.3,34.1,30.26,North,11,0.4,4.6,88,0.00,OVC,,0.00,0.0,WeatherDisplay:10.37,2013-11-22 00:53:00,
2013-11-21 18:58:00,37.3,34.1,30.26,NW,313,0.0,2.3,88,0.00,OVC,,0.00,0.0,WeatherDisplay:10.37,2013-11-22 00:58:00,
2013-11-21 19:03:00,37.3,34.1,30.26,NW,313,0.0,0.0,88,0.00,OVC,,0.00,0.0,WeatherDisplay:10.37,2013-11-22 01:03:00,
2013-11-21 19:08:00,37.2,34.0,30.26,WNW,299,0.8,6.0,88,0.00,OVC,,0.00,0.0,WeatherDisplay:10.37,2013-11-22 01:08:00,
2013-11-21 19:13:00,37.2,34.0,30.26,NW,320,2.4,4.8,88,0.00,OVC,,0.00,0.0,WeatherDisplay:10.37,2013-11-22 01:13:00,
2013-11-21 19:18:00,37.2,34.0,30.27,WNW,303,0.1,6.9,88,0.00,OVC,,0.00,0.0,WeatherDisplay:10.37,2013-11-22 01:18:00,
2013-11-21 19:23:00,37.0,33.8,30.27,WNW,303,3.5,6.0,88,0.00,OVC,,0.00,0.0,WeatherDisplay:10.37,2013-11-22 01:23:00,
2013-11-21 19:28:00,37.0,34.1,30.27,North,5,3.6,7.2,89,0.00,OVC,,0.00,0.0,WeatherDisplay:10.37,2013-11-22 01:28:00,
2013-11-21 19:33:00,37.0,34.1,30.27,NNW,329,0.0,0.0,89,0.00,OVC,,0.00,0.0,WeatherDisplay:10.37,2013-11-22 01:33:00,
2013-11-21 19:38:00,37.0,33.8,30.27,NNW,333,0.0,0.0,88,0.00,OVC,,0.00,0.0,WeatherDisplay:10.37,2013-11-22 01:38:00,
2013-11-21 19:43:00,37.0,34.1,30.27,WNW,302,2.6,4.8,89,0.00,OVC,,0.00,0.0,WeatherDisplay:10.37,2013-11-22 01:43:00,
2013-11-21 19:48:00,37.0,34.1,30.28,NW,317,2.5,4.8,89,0.00,OVC,,0.00,0.0,WeatherDisplay:10.37,2013-11-22 01:48:00,
2013-11-21 19:53:00,36.9,34.0,30.28,WNW,303,0.1,2.3,89,0.00,OVC,,0.00,0.0,WeatherDisplay:10.37,2013-11-22 01:53:00,
2013-11-21 19:58:00,36.9,34.0,30.28,NW,313,0.6,3.6,89,0.00,OVC,,0.00,0.0,WeatherDisplay:10.37,2013-11-22 01:58:00,
2013-11-21 20:03:00,37.0,34.1,30.29,NW,312,0.4,3.6,89,0.00,OVC,,0.00,0.0,WeatherDisplay:10.37,2013-11-22 02:03:00,
2013-11-21 20:08:00,36.9,34.0,30.29,NNW,338,0.0,0.0,89,0.00,OVC,,0.00,0.0,WeatherDisplay:10.37,2013-11-22 02:08:00,
2013-11-21 20:09:00,36.9,34.0,30.29,NNW,338,0.0,0.0,89,0.00,OVC,,0.00,0.0,WeatherDisplay:10.37,2013-11-22 02:09:00,
2013-11-21 20:11:00,36.9,34.0,30.29,NW,325,4.4,7.2,89,0.00,OVC,,0.00,0.0,WeatherDisplay:10.37,2013-11-22 02:11:00,
2013-11-21 20:13:00,36.9,34.0,30.29,NW,312,1.8,3.6,89,0.00,OVC,,0.00,0.0,WeatherDisplay:10.37,2013-11-22 02:13:00,
2013-11-21 20:18:00,36.9,34.0,30.30,NW,306,0.0,1.2,89,0.00,OVC,,0.00,0.0,WeatherDisplay:10.37,2013-11-22 02:18:00,
2013-11-21 20:23:00,36.9,34.0,30.30,North,360,2.1,6.0,89,0.00,OVC,,0.00,0.0,WeatherDisplay:10.37,2013-11-22 02:23:00,
2013-11-21 20:28:00,36.9,34.0,30.30,NW,315,2.6,5.8,89,0.00,OVC,,0.00,0.0,WeatherDisplay:10.37,2013-11-22 02:28:00,
2013-11-21 20:33:00,36.9,34.0,30.30,NW,319,0.0,0.0,89,0.00,OVC,,0.00,0.0,WeatherDisplay:10.37,2013-11-22 02:33:00,
2013-11-21 20:38:00,36.9,34.0,30.30,North,349,0.8,4.6,89,0.00,OVC,,0.00,0.0,WeatherDisplay:10.37,2013-11-22 02:38:00,
2013-11-21 20:43:00,36.8,33.9,30.30,NNW,331,4.5,8.1,89,0.00,OVC,,0.00,0.0,WeatherDisplay:10.37,2013-11-22 02:43:00,
2013-11-21 20:48:00,36.8,34.1,30.30,NNW,333,1.2,3.6,90,0.00,OVC,,0.00,0.0,WeatherDisplay:10.37,2013-11-22 02:48:00,
2013-11-21 20:53:00,36.6,33.9,30.30,NW,313,1.5,4.8,90,0.00,OVC,,0.00,0.0,WeatherDisplay:10.37,2013-11-22 02:53:00,
2013-11-21 20:58:00,36.6,33.9,30.30,NW,304,0.0,2.3,90,0.00,OVC,,0.00,0.0,WeatherDisplay:10.37,2013-11-22 02:58:00,
2013-11-21 21:03:00,36.5,33.8,30.30,NW,304,2.0,4.6,90,0.00,OVC,,0.00,0.0,WeatherDisplay:10.37,2013-11-22 03:03:00,
2013-11-21 21:08:00,36.5,34.1,30.30,NW,311,3.6,6.0,91,0.00,OVC,,0.00,0.0,WeatherDisplay:10.37,2013-11-22 03:08:00,
2013-11-21 21:13:00,36.3,33.9,30.30,NW,321,0.6,3.6,91,0.00,OVC,,0.00,0.0,WeatherDisplay:10.37,2013-11-22 03:13:00,
2013-11-21 21:18:00,36.2,34.1,30.30,NNW,327,0.0,1.2,92,0.00,OVC,,0.00,0.0,WeatherDisplay:10.37,2013-11-22 03:18:00,
2013-11-21 21:23:00,35.9,33.8,30.30,NW,306,2.7,6.0,92,0.00,OVC,,0.00,0.0,WeatherDisplay:10.37,2013-11-22 03:23:00,
2013-11-21 21:28:00,35.5,33.4,30.30,North,350,2.7,8.4,92,0.00,OVC,,0.00,0.0,WeatherDisplay:10.37,2013-11-22 03:28:00,
2013-11-21 21:33:00,35.0,32.9,30.30,NW,311,8.0,10.8,92,0.00,OVC,,0.00,0.0,WeatherDisplay:10.37,2013-11-22 03:33:00,
2013-11-21 21:38:00,34.7,32.9,30.30,NNW,342,2.8,7.2,93,0.00,OVC,,0.00,0.0,WeatherDisplay:10.37,2013-11-22 03:38:00,
2013-11-21 21:43:00,34.4,32.6,30.30,NW,314,5.4,7.2,93,0.00,OVC,,0.00,0.0,WeatherDisplay:10.37,2013-11-22 03:43:00,
2013-11-21 21:48:00,34.4,32.6,30.30,NW,316,3.4,8.4,93,0.00,OVC,,0.00,0.0,WeatherDisplay:10.37,2013-11-22 03:48:00,
2013-11-21 21:53:00,34.3,32.5,30.30,NW,309,4.7,6.9,93,0.00,OVC,,0.00,0.0,WeatherDisplay:10.37,2013-11-22 03:53:00,
2013-11-21 21:58:00,34.1,32.3,30.30,NNW,344,4.7,7.2,93,0.00,OVC,,0.00,0.0,WeatherDisplay:10.37,2013-11-22 03:58:00,
2013-11-21 22:03:00,33.8,32.0,30.30,NW,304,7.2,10.8,93,0.00,OVC,,0.00,0.0,WeatherDisplay:10.37,2013-11-22 04:03:00,
2013-11-21 22:08:00,33.7,31.9,30.30,NW,319,2.8,6.0,93,0.00,OVC,,0.00,0.0,WeatherDisplay:10.37,2013-11-22 04:08:00,
2013-11-21 22:13:00,33.5,31.7,30.30,NW,304,2.9,4.8,93,0.00,OVC,,0.00,0.0,WeatherDisplay:10.37,2013-11-22 04:13:00,
2013-11-21 22:18:00,33.5,31.7,30.31,NW,308,6.6,10.4,93,0.00,OVC,,0.00,0.0,WeatherDisplay:10.37,2013-11-22 04:18:00,
2013-11-21 22:23:00,33.4,31.6,30.31,NW,314,3.0,3.6,93,0.00,OVC,,0.00,0.0,WeatherDisplay:10.37,2013-11-22 04:23:00,
2013-11-21 22:28:00,33.4,31.6,30.31,NW,306,5.1,9.6,93,0.00,OVC,,0.00,0.0,WeatherDisplay:10.37,2013-11-22 04:28:00,
2013-11-21 22:33:00,33.2,31.7,30.32,WNW,299,3.4,3.6,94,0.00,OVC,,0.00,0.0,WeatherDisplay:10.37,2013-11-22 04:33:00,
2013-11-21 22:38:00,33.2,31.7,30.32,WNW,292,1.9,3.6,94,0.00,OVC,,0.00,0.0,WeatherDisplay:10.37,2013-11-22 04:38:00,
2013-11-21 22:43:00,33.2,31.7,30.32,WNW,296,1.1,3.6,94,0.00,OVC,,0.00,0.0,WeatherDisplay:10.37,2013-11-22 04:43:00,
2013-11-21 22:48:00,33.1,31.6,30.33,WNW,297,5.9,8.4,94,0.00,OVC,,0.00,0.0,WeatherDisplay:10.37,2013-11-22 04:48:00,
2013-11-21 22:53:00,32.9,31.4,30.33,NW,316,5.4,7.2,94,0.00,OVC,,0.00,0.0,WeatherDisplay:10.37,2013-11-22 04:53:00,
2013-11-21 22:58:00,32.7,31.2,30.33,NW,311,4.1,7.2,94,0.00,OVC,,0.00,0.0,WeatherDisplay:10.37,2013-11-22 04:58:00,
2013-11-21 23:01:00,32.7,31.2,30.33,WNW,297,2.6,7.2,94,0.00,OVC,,0.00,0.0,WeatherDisplay:10.37,2013-11-22 05:01:00,
2013-11-21 23:02:00,32.7,31.2,30.33,WNW,297,2.6,7.2,94,0.00,OVC,,0.00,0.0,WeatherDisplay:10.37,2013-11-22 05:02:00,
2013-11-21 23:03:00,32.5,31.0,30.33,WNW,300,7.5,10.8,94,0.00,OVC,,0.00,0.0,WeatherDisplay:10.37,2013-11-22 05:03:00,
2013-11-21 23:08:00,32.4,30.9,30.33,NW,313,1.9,10.4,94,0.00,OVC,,0.00,0.0,WeatherDisplay:10.37,2013-11-22 05:08:00,
2013-11-21 23:13:00,32.2,30.7,30.33,NW,325,4.6,8.4,94,0.00,OVC,,0.00,0.0,WeatherDisplay:10.37,2013-11-22 05:13:00,
2013-11-21 23:18:00,32.1,30.6,30.33,NW,310,6.8,8.4,94,0.00,OVC,,0.00,0.0,WeatherDisplay:10.37,2013-11-22 05:18:00,
2013-11-21 23:23:00,31.9,30.4,30.33,NW,312,4.9,8.4,94,0.00,OVC,,0.00,0.0,WeatherDisplay:10.37,2013-11-22 05:23:00,
2013-11-21 23:28:00,31.8,30.3,30.33,NW,313,6.5,12.0,94,0.00,OVC,,0.00,0.0,WeatherDisplay:10.37,2013-11-22 05:28:00,
2013-11-21 23:33:00,31.8,30.3,30.33,NW,312,5.0,10.8,94,0.00,OVC,,0.00,0.0,WeatherDisplay:10.37,2013-11-22 05:33:00,
2013-11-21 23:38:00,31.6,30.1,30.33,NW,318,9.3,13.2,94,0.00,OVC,,0.00,0.0,WeatherDisplay:10.37,2013-11-22 05:38:00,
2013-11-21 23:43:00,31.5,30.0,30.33,NW,310,5.9,9.6,94,0.00,OVC,,0.00,0.0,WeatherDisplay:10.37,2013-11-22 05:43:00,
2013-11-21 23:48:00,31.5,30.0,30.34,NW,309,3.8,9.2,94,0.00,OVC,,0.00,0.0,WeatherDisplay:10.37,2013-11-22 05:48:00,
2013-11-21 23:53:00,31.3,29.8,30.34,NW,311,3.8,7.2,94,0.00,OVC,,0.00,0.0,WeatherDisplay:10.37,2013-11-22 05:53:00,
2013-11-21 23:58:00,31.3,29.8,30.34,NNW,344,4.5,6.0,94,0.00,OVC,,0.00,0.0,WeatherDisplay:10.37,2013-11-22 05:58:00,